Regional Weather Roundup
Issued by NWS

Home | Current Version | Previous Version | Text Only | Print | Product List | Glossary On
Versions: 1 2 3 4 5 6 7 8 9 10 11 12 13 14 15 16 17 18 19 20 21 22 23 24 25 26 27 28 29 30 31 32 33 34 35 36 37 38 39 40 41 42 43 44 45 46 47 48 49 50
000
ASUS45 KBOI 281510
RWRID
WEATHER ROUNDUP FOR IDAHO
NATIONAL WEATHER SERVICE BOISE ID
800 AM MST SAT FEB 28 2015

NOTE: "FAIR" INDICATES FEW OR NO CLOUDS BELOW 12000 FEET
WITH NO SIGNIFICANT WEATHER AND/OR OBSTRUCTIONS TO VISIBILITY

IDZ012-014-281600-
SOUTHWEST IDAHO


CITY           SKY/WX    TMP DP  RH WIND       PRES   REMARKS
BOISE          CLOUDY    36  32  85 W5        29.78R WCI  32
CALDWELL       CLOUDY    36  28  75 CALM      29.81R
MOUNTAIN HOME  MIX PCPN  37  24  59 E7        29.76R WCI  31
$$

IDZ016-017-281600-
SOUTHCENTRAL IDAHO


CITY           SKY/WX    TMP DP  RH WIND       PRES   REMARKS
BURLEY         CLOUDY    26  15  63 E20       29.72R WCI  12
JEROME         CLOUDY    30  12  47 NE26G35   29.71S WCI  16
TWIN FALLS     CLOUDY    30  18  60 E17       29.71S WCI  18
$$

IDZ019>023-281600-
SOUTHEAST IDAHO


CITY           SKY/WX    TMP DP  RH WIND       PRES   REMARKS
IDAHO FALLS    CLEAR     20  10  65 N16       29.81R WCI   6
POCATELLO      PTCLDY    20  16  84 NE10      29.76S WCI   9
REXBURG        PTCLDY    17   8  67 NE13      29.82R WCI   4
$$

IDZ006-010-011-018-031-032-281600-
CENTRAL IDAHO MOUNTAINS


CITY           SKY/WX    TMP DP  RH WIND       PRES   REMARKS
MCCALL         CLOUDY    30  22  72 N5        29.73R WCI  25
HAILEY         PTCLDY    27  19  74 NW9       29.73R WCI  17
STANLEY          N/A     10   4  76 CALM      29.75R
SALMON         MOCLDY    27   9  46 E6        29.90R WCI  20
CHALLIS        CLOUDY    25  16  68 NW10      29.79R WCI  15
$$

IDZ002-004-006-007-026-281600-
NORTHERN IDAHO


CITY           SKY/WX    TMP DP  RH WIND       PRES   REMARKS
LEWISTON       PTCLDY    31  22  69 CALM      29.99R
LOWELL           N/A     35  12  38 N8        29.99R WCI  29
COEUR D`ALENE  CLEAR     27   7  43 N15       30.08R WCI  15
MULLAN PASS    CLEAR      8   1  73 E8        29.86R WCI  -4
$$



USA.gov is the U.S. government's official web portal to all federal, state and local government web resources and services.